Time,TemperatureF,DewpointF,PressureIn,WindDirection,WindDirectionDegrees,WindSpeedMPH,WindSpeedGustMPH,Humidity,HourlyPrecipIn,Conditions,Clouds,dailyrainin,SoftwareType,DateUTC
2013-11-19 00:22:00,41.0,29.0,29.13,SSW,202,10.0,23.0,61,0.00,,,0.32,,2013-11-19 05:22:00,
2013-11-19 00:43:00,41.0,31.0,29.13,SSE,157,1.0,12.0,66,0.00,,,0.32,,2013-11-19 05:43:00,
2013-11-19 00:53:00,41.0,30.0,29.13,South,180,9.0,12.0,64,0.00,,,0.32,,2013-11-19 05:53:00,
2013-11-19 01:22:00,40.0,28.0,29.13,SSW,202,5.0,11.0,63,0.00,,,0.32,,2013-11-19 06:22:00,
2013-11-19 01:52:00,40.0,29.0,29.15,SW,225,6.0,12.0,65,0.00,,,0.32,,2013-11-19 06:52:00,
2013-11-19 02:12:00,39.0,29.0,29.15,SSW,202,7.0,9.0,66,0.00,,,0.32,,2013-11-19 07:12:00,
2013-11-19 02:22:00,39.0,29.0,29.17,South,180,9.0,12.0,67,0.00,,,0.32,,2013-11-19 07:22:00,
2013-11-19 02:42:00,38.0,28.0,29.17,SSW,202,5.0,14.0,68,0.00,,,0.32,,2013-11-19 07:42:00,
2013-11-19 02:52:00,38.0,31.0,29.19,WNW,292,10.0,18.0,77,0.00,,,0.32,,2013-11-19 07:52:00,
2013-11-19 03:22:00,35.0,30.0,29.20,WNW,292,11.0,19.0,82,0.00,,,0.30,,2013-11-19 08:22:00,
2013-11-19 03:42:00,35.0,29.0,29.22,WNW,292,10.0,19.0,77,0.00,,,0.30,,2013-11-19 08:42:00,
2013-11-19 03:52:00,35.0,26.0,29.22,WNW,292,12.0,19.0,70,0.00,,,0.27,,2013-11-19 08:52:00,
2013-11-19 04:21:00,34.0,25.0,29.23,WNW,292,13.0,20.0,69,0.00,,,0.21,,2013-11-19 09:21:00,
2013-11-19 04:43:00,34.0,25.0,29.25,WNW,292,13.0,20.0,69,0.00,,,0.19,,2013-11-19 09:43:00,
2013-11-19 04:53:00,34.0,23.0,29.26,WNW,292,10.0,17.0,65,0.00,,,0.18,,2013-11-19 09:53:00,
2013-11-19 05:13:00,34.0,23.0,29.27,WNW,292,7.0,13.0,63,0.00,,,0.13,,2013-11-19 10:13:00,
2013-11-19 05:23:00,33.0,23.0,29.28,NW,315,4.0,15.0,65,0.00,,,0.03,,2013-11-19 10:23:00,
2013-11-19 05:53:00,33.0,22.0,29.30,WSW,247,10.0,19.0,63,0.00,,,0.02,,2013-11-19 10:53:00,
2013-11-19 06:12:00,33.0,21.0,29.32,WNW,292,8.0,16.0,62,0.00,,,0.02,,2013-11-19 11:12:00,
2013-11-19 06:22:00,32.0,20.0,29.32,WNW,292,9.0,15.0,62,0.00,,,0.02,,2013-11-19 11:22:00,
2013-11-19 06:42:00,32.0,19.0,29.34,WNW,292,10.0,14.0,59,0.00,,,0.01,,2013-11-19 11:42:00,
2013-11-19 06:52:00,32.0,20.0,29.35,WNW,292,7.0,16.0,62,0.00,,,0.01,,2013-11-19 11:52:00,
2013-11-19 07:21:00,32.0,21.0,29.36,WNW,292,7.0,14.0,63,0.00,,,0.01,,2013-11-19 12:21:00,
2013-11-19 07:42:00,32.0,21.0,29.39,WNW,292,5.0,11.0,64,0.00,,,0.00,,2013-11-19 12:42:00,
2013-11-19 07:52:00,32.0,21.0,29.39,NW,315,10.0,16.0,64,0.00,,,0.00,,2013-11-19 12:52:00,
2013-11-19 08:11:00,32.0,20.0,29.41,WNW,292,12.0,20.0,62,0.00,,,0.00,,2013-11-19 13:11:00,
2013-11-19 08:42:00,32.0,20.0,29.41,WNW,292,10.0,20.0,61,0.00,,,0.00,,2013-11-19 13:42:00,
2013-11-19 08:52:00,32.0,19.0,29.41,WNW,292,12.0,25.0,59,0.00,,,0.00,,2013-11-19 13:52:00,
2013-11-19 09:22:00,33.0,21.0,29.43,WNW,292,8.0,16.0,62,0.00,,,0.00,,2013-11-19 14:22:00,
2013-11-19 09:52:00,33.0,22.0,29.44,WNW,292,6.0,18.0,64,0.00,,,0.00,,2013-11-19 14:52:00,
2013-11-19 10:22:00,33.0,21.0,29.46,NW,315,12.0,20.0,61,0.00,,,0.00,,2013-11-19 15:22:00,
2013-11-19 10:43:00,33.0,21.0,29.46,WNW,292,10.0,20.0,61,0.00,,,0.00,,2013-11-19 15:43:00,
2013-11-19 10:53:00,34.0,22.0,29.46,NNW,337,10.0,19.0,61,0.00,,,0.00,,2013-11-19 15:53:00,
2013-11-19 11:23:00,35.0,21.0,29.46,NW,315,10.0,15.0,57,0.00,,,0.00,,2013-11-19 16:23:00,
2013-11-19 11:43:00,34.0,21.0,29.47,WNW,292,7.0,20.0,59,0.00,,,0.00,,2013-11-19 16:43:00,
2013-11-19 11:52:00,34.0,21.0,29.48,NW,315,10.0,16.0,58,0.00,,,0.00,,2013-11-19 16:52:00,
2013-11-19 12:12:00,34.0,21.0,29.49,NW,315,9.0,17.0,58,0.00,,,0.00,,2013-11-19 17:12:00,
2013-11-19 12:22:00,34.0,21.0,29.49,North,360,6.0,12.0,58,0.00,,,0.00,,2013-11-19 17:22:00,
2013-11-19 12:43:00,34.0,21.0,29.50,NW,315,11.0,17.0,58,0.00,,,0.00,,2013-11-19 17:43:00,
2013-11-19 12:52:00,34.0,21.0,29.50,NNW,337,5.0,13.0,58,0.00,,,0.00,,2013-11-19 17:52:00,
2013-11-19 13:22:00,34.0,21.0,29.51,North,360,9.0,15.0,59,0.00,,,0.00,,2013-11-19 18:22:00,
2013-11-19 13:42:00,34.0,21.0,29.51,NNW,337,8.0,16.0,59,0.00,,,0.00,,2013-11-19 18:42:00,
2013-11-19 13:52:00,34.0,22.0,29.52,NW,315,5.0,13.0,61,0.00,,,0.00,,2013-11-19 18:52:00,
2013-11-19 14:21:00,34.0,22.0,29.53,WNW,292,9.0,15.0,61,0.00,,,0.00,,2013-11-19 19:21:00,
2013-11-19 14:42:00,34.0,21.0,29.54,NW,315,3.0,13.0,59,0.00,,,0.00,,2013-11-19 19:42:00,
2013-11-19 14:52:00,34.0,21.0,29.54,NNW,337,10.0,15.0,59,0.00,,,0.00,,2013-11-19 19:52:00,
2013-11-19 15:21:00,33.0,20.0,29.56,NW,315,6.0,13.0,59,0.00,,,0.00,,2013-11-19 20:21:00,
2013-11-19 15:42:00,34.0,21.0,29.57,NW,315,6.0,13.0,58,0.00,,,0.00,,2013-11-19 20:42:00,
2013-11-19 15:52:00,34.0,21.0,29.58,NNW,337,7.0,10.0,58,0.00,,,0.00,,2013-11-19 20:52:00,
2013-11-19 16:21:00,33.0,22.0,29.59,NNW,337,4.0,10.0,63,0.00,,,0.00,,2013-11-19 21:21:00,
2013-11-19 16:43:00,32.0,20.0,29.61,NNW,337,7.0,15.0,62,0.00,,,0.00,,2013-11-19 21:43:00,
2013-11-19 16:54:00,31.0,21.0,29.62,NNW,337,3.0,14.0,65,0.00,,,0.00,,2013-11-19 21:54:00,
2013-11-19 17:13:00,31.0,21.0,29.64,North,360,7.0,13.0,66,0.00,,,0.00,,2013-11-19 22:13:00,
2013-11-19 17:23:00,31.0,21.0,29.65,NW,315,7.0,12.0,66,0.00,,,0.00,,2013-11-19 22:23:00,
2013-11-19 17:43:00,31.0,21.0,29.66,WNW,292,4.0,14.0,66,0.00,,,0.00,,2013-11-19 22:43:00,
2013-11-19 17:53:00,31.0,21.0,29.66,WNW,292,6.0,16.0,66,0.00,,,0.00,,2013-11-19 22:53:00,
2013-11-19 18:22:00,30.0,20.0,29.67,NW,315,4.0,9.0,66,0.00,,,0.00,,2013-11-19 23:22:00,
2013-11-19 18:43:00,30.0,20.0,29.67,NW,315,4.0,12.0,66,0.00,,,0.00,,2013-11-19 23:43:00,
2013-11-19 18:52:00,30.0,20.0,29.70,NW,315,2.0,13.0,67,0.00,,,0.00,,2013-11-19 23:52:00,
2013-11-19 19:11:00,30.0,20.0,29.70,North,360,4.0,13.0,67,0.00,,,0.00,,2013-11-20 00:11:00,
2013-11-19 19:21:00,30.0,20.0,29.71,NNW,337,8.0,16.0,65,0.00,,,0.00,,2013-11-20 00:21:00,
2013-11-19 19:52:00,30.0,20.0,29.72,NW,315,6.0,16.0,66,0.00,,,0.00,,2013-11-20 00:52:00,
2013-11-19 20:22:00,29.0,18.0,29.74,North,360,11.0,16.0,64,0.00,,,0.00,,2013-11-20 01:22:00,
2013-11-19 20:42:00,29.0,18.0,29.75,WNW,292,12.0,18.0,63,0.00,,,0.00,,2013-11-20 01:42:00,
2013-11-19 20:52:00,29.0,18.0,29.75,NW,315,5.0,15.0,64,0.00,,,0.00,,2013-11-20 01:52:00,
2013-11-19 21:22:00,29.0,17.0,29.76,NW,315,5.0,20.0,60,0.00,,,0.00,,2013-11-20 02:22:00,
2013-11-19 21:42:00,29.0,18.0,29.76,NW,315,7.0,18.0,62,0.00,,,0.00,,2013-11-20 02:42:00,
2013-11-19 21:52:00,28.0,18.0,29.76,WNW,292,7.0,11.0,65,0.00,,,0.00,,2013-11-20 02:52:00,
2013-11-19 22:21:00,28.0,18.0,29.77,NW,315,9.0,15.0,67,0.00,,,0.00,,2013-11-20 03:21:00,
2013-11-19 22:44:00,27.0,18.0,29.78,WNW,292,7.0,13.0,69,0.00,,,0.00,,2013-11-20 03:44:00,
2013-11-19 22:54:00,28.0,19.0,29.78,NW,315,3.0,22.0,68,0.00,,,0.00,,2013-11-20 03:54:00,
2013-11-19 23:13:00,27.0,19.0,29.79,WNW,292,10.0,17.0,70,0.00,,,0.00,,2013-11-20 04:13:00,
2013-11-19 23:23:00,27.0,19.0,29.80,WNW,292,7.0,17.0,71,0.00,,,0.00,,2013-11-20 04:23:00,
2013-11-19 23:43:00,27.0,20.0,29.80,NNW,337,7.0,16.0,73,0.00,,,0.00,,2013-11-20 04:43:00,
2013-11-19 23:52:00,27.0,19.0,29.80,WNW,292,8.0,15.0,72,0.00,,,0.00,,2013-11-20 04:52:00,